This is the latest recevied weather packets stored in our database for station/object N6RDS. If no packets are shown the sender has not sent any weather packets the latest 10 day(s).
| Time | Temp. | Humidity | Pressure | Rain* | Wind** | Luminosity | Snow |
|---|---|---|---|---|---|---|---|
| 1777860419 | 16.11° C | 35% | 1021.8 hPa | 0 mm | - | 5 W/m² | - |
| 1777860115 | 16.11° C | 35% | 1022 hPa | 0 mm | - | 7 W/m² | - |
| 1777859812 | 16.11° C | 36% | 1021.8 hPa | 0 mm | - | 9 W/m² | - |
| 1777859508 | 16.67° C | 35% | 1022 hPa | 0 mm | - | 12 W/m² | - |
| 1777859204 | 16.67° C | 35% | 1021.8 hPa | 0 mm | - | 16 W/m² | - |
| 1777858902 | 16.67° C | 35% | 1022.1 hPa | 0 mm | - | 19 W/m² | - |
| 1777858599 | 17.22° C | 35% | 1021.7 hPa | 0 mm | - | 22 W/m² | - |
| 1777858296 | 17.22° C | 34% | 1021.8 hPa | 0 mm | - | 29 W/m² | - |
| 1777857993 | 17.78° C | 33% | 1022.1 hPa | 0 mm | - | 26 W/m² | - |
| 1777857691 | 18.33° C | 32% | 1021.8 hPa | 0 mm | - | 38 W/m² | - |
| 1777857387 | 18.33° C | 31% | 1021.7 hPa | 0 mm | - | 26 W/m² | - |
| 1777857084 | 18.33° C | 30% | 1022 hPa | 0 mm | - | 26 W/m² | - |
| 1777856780 | 18.33° C | 30% | 1022 hPa | 0 mm | - | 26 W/m² | - |
| 1777856476 | 18.33° C | 30% | 1022.2 hPa | 0 mm | - | 39 W/m² | - |
| 1777856173 | 18.89° C | 29% | 1022.1 hPa | 0 mm | - | 49 W/m² | - |
| 1777855870 | 18.89° C | 29% | 1022.2 hPa | 0 mm | - | 39 W/m² | - |
| 1777855568 | 18.89° C | 29% | 1022 hPa | 0 mm | - | 56 W/m² | - |
| 1777855265 | 18.89° C | 29% | 1022.3 hPa | 0 mm | - | 82 W/m² | - |
| 1777854961 | 19.44° C | 28% | 1022 hPa | 0 mm | - | 44 W/m² | - |
| 1777854658 | 19.44° C | 28% | 1022.1 hPa | 0 mm | - | 57 W/m² | - |
| 1777854354 | 20° C | 27% | 1022.1 hPa | 0 mm | - | 36 W/m² | - |
| 1777854052 | 20° C | 28% | 1021.8 hPa | 0 mm | - | 46 W/m² | - |
| 1777853750 | 19.44° C | 28% | 1022.1 hPa | 0 mm | - | 60 W/m² | - |
| 1777853446 | 19.44° C | 28% | 1022 hPa | 0 mm | - | 60 W/m² | - |
| 1777853143 | 19.44° C | 29% | 1022.2 hPa | 0 mm | - | 154 W/m² | - |
* Rain latest hour (hover to see other rain measurements)
** Current wind speed in m/s (hover to see current wind gust speed)